Norwegian: Past 24 Hour Conditions

 

Repulse Bay Airport

08:00 PM CST 20 November 2014
This table is a summary of hourly weather conditions for the past 24 hours.
Date / Time
(CST)
Wind(knots) Conditions Visibility(km) Pressure(kPa) Air tempC) Relative humidity(%) Dew pointC) Wind Chill
20 November 2014
20:00 N 19 gust 25 N/A N/A 99.6 -26 73 -29 -41
19:00 N 22 gust 29 N/A N/A 99.6 -25 73 -29 -41
18:00 NNW 19 gust 25 N/A N/A 99.7 -25 73 -29 -40
17:00 NNW 16 Ice Crystals 8 99.8 -25 74 -28 -39
16:00 NNW 22 gust 28 Light Snow 2 99.8 -24 75 -27 -39
15:00 NNW 18 gust 24 Light Snow 0.8 99.8 -22 76 -25 -36
14:00 NNW 18 Light Snow 3 99.8 -21 75 -24 -34
13:00 NNW 13 Light Snow 16 99.8 -20 77 -23 -31
12:00 NNW 15 gust 21 Light Snow 8 99.8 -19 76 -22 -31
11:00 NNW 14 gust 21 Light Snow 3 99.8 -19 79 -21 -30
10:00 NNW 16 Light Snow 16 99.9 -18 75 -21 -30
9:00 NNW 12 gust 18 Light Snow 16 99.9 -18 77 -21 -28
8:00 NNW 11 Light Snow 16 100.0 -18 77 -21 -28
7:00 NNW 11 Light Snow 16 100.0 -18 78 -21 -28
6:00 NNW 16 N/A N/A 100.0 -18 77 -21 -29
5:00 NNW 12 N/A N/A 100.0 -17 77 -21 -28
4:00 NNW 16 N/A N/A 100.0 -18 78 -21 -29
3:00 NNW 16 gust 23 N/A N/A 100.0 -18 78 -21 -30
2:00 N 17 N/A N/A 100.0 -18 78 -21 -30
1:00 N 19 N/A N/A 100.0 -18 78 -21 -31
0:00 N 18 N/A N/A 100.0 -18 78 -21 -31
19 November 2014
23:00 N 17 N/A N/A 100.0 -19 78 -22 -31
22:00 N 19 N/A N/A 100.0 -19 78 -22 -32
21:00 N 16 N/A N/A 100.1 -19 77 -22 -31
20:00 N 17 N/A N/A 100.1 -19 77 -22 -31
 
Map of Arctic - Eastern Arctic marine weather areas Baker Lake Airport Chesterfield Inlet Airport Coral Harbour Airport Gjoa Haven Airport Kugaaruk Airport Rankin Inlet Airport Shepherd Bay Airport Whale Cove Airport Arctic Bay Brevoort Island Qikiqtarjuaq Airport Cape Dorset Airport Cape Dyer Cape Hooper Clyde Airport Grise Fiord Airport Hall Beach Airport Igloolik Airport Iqaluit Airport Longstaff Bluff Pangnirtung Airport Pond Inlet Airport Repulse Bay Airport Resolute Airport Resolution Island Rowley Island Airport Taloyoak Airport Wager Bay Akulivik Airport Ivujivik Airport Puvirnituq Airport Kangiqsujuaq Airport Kangirsuk Airport Quaqtaq Airport Tasiujaq Airport Cape Kakkiviak Cape Kiglapait Nain Airport Saglek Cape Mercy Kimmirut Airport Aupaluk Airport Salluit Airport Kangiqsualujjuaq Airport Fort Ross
Legend: buoyBuoy land stationLand Station